User: anonymous   Login
Location: Santa Barbara
(34.4500°N, 119.7700°W)
Time: 18:12:58
(UTC-07:00)
Language:

Cosmos 1892 Rocket - Orbit

View from above orbital plane
View from above orbital plane
View from above satellite
View from above satellite

Ground track
Ground track

The orbit data is extracted from the following two-line orbital elements,

1 18422U 87088B   15142.58300847  .00000278  00000-0  31433-4 0  9991
2 18422 082.5106 165.7501 0020979 053.8808 062.1459 14.82715026489694
Epoch (UTC): 22 May 2015 13:59:31
Eccentricity: 0.0020979
inclination: 82.5106°
perigee height: 606 km
apogee height: 635 km
right ascension of ascending node: 165.7501°
argument of perigee: 53.8808°
revolutions per day: 14.82715026
mean anomaly at epoch: 62.1459°
orbit number at epoch: 48969

The dashed part of the orbit path shows where the satellite is in the earth's shadow,  

DLR